GW1788 Weather Reports


time (UTC)temp
F
wind
direction
speed
knots
gust
knots
rain 1hr
in
rain 24hr
in
rain mn
in
humidity
%
barometer
mb
20260509013216 44 315 0.0 0.0 0.00 0.00 0.00 10 1009.2
20260509012705 43 315 0.0 0.0 0.00 0.00 0.00 10 1009.3
20260509011647 44 315 0.0 0.0 0.00 0.00 0.00 10 1009.2
20260509011136 44 315 0.0 0.0 0.00 0.00 0.00 10 1008.8
20260509005607 44 315 0.0 0.0 0.00 0.00 0.00 10 1008.7
20260509005056 44 315 0.0 0.0 0.00 0.00 0.00 10 1008.6
20260509004039 45 315 0.0 0.0 0.00 0.00 0.00 10 1008.7
20260509003530 44 315 0.0 0.0 0.00 0.00 0.00 10 1008.5
20260509003020 45 315 0.0 0.0 0.00 0.00 0.00 10 1008.3
20260509002507 45 315 0.0 0.0 0.00 0.00 0.00 10 1008.5
20260509002000 45 293 0.0 0.0 0.00 0.00 0.00 10 1008.4
20260509001446 45 293 0.0 0.0 0.00 0.00 0.00 10 1008.3
20260509000936 45 293 0.0 3.5 0.00 0.00 0.00 10 1008.4
20260508235914 45 293 0.0 3.5 0.00 0.00 0.00 10 1008.3
20260508235408 45 293 1.7 3.5 0.00 0.00 0.00 10 1008.1
20260508233835 46 293 0.0 5.2 0.00 0.00 0.00 10 1007.9
20260508232815 47 293 1.7 6.1 0.00 0.00 0.00 10 1008.1
20260508231244 47 293 1.7 6.1 0.00 0.00 0.00 10 1008.1
20260508225714 47 270 0.9 7.0 0.00 0.00 0.00 10 1007.9
20260508225206 48 293 0.9 5.2 0.00 0.00 0.00 10 1007.8
20260508224143 49 293 2.6 6.1 0.00 0.00 0.00 10 1007.5
20260508223635 49 293 2.6 7.0 0.00 0.00 0.00 10 1007.8
20260508223132 49 293 2.6 7.0 0.00 0.00 0.00 10 1007.3
20260508222106 49 293 1.7 7.0 0.00 0.00 0.00 10 1007.2
20260508221552 49 270 1.7 9.6 0.00 0.00 0.00 10 1007.5
20260508221042 50 293 3.5 9.6 0.00 0.00 0.00 10 1007.2
20260508220532 50 270 4.3 7.8 0.00 0.00 0.00 10 1006.8
20260508215515 50 293 1.7 7.8 0.00 0.00 0.00 10 1006.6
20260508215001 50 293 3.5 7.8 0.00 0.00 0.00 10 1006.6
20260508214452 50 293 2.6 7.0 0.00 0.00 0.00 10 1006.7
20260508212921 51 293 3.5 9.6 0.00 0.00 0.00 10 1006.3
20260508212411 52 293 6.1 9.6 0.00 0.00 0.00 10 1006.4
20260508211351 52 293 3.5 9.6 0.00 0.00 0.00 10 1006.2
20260508210842 53 293 5.2 9.6 0.00 0.00 0.00 10 1005.9
20260508210331 53 293 5.2 9.6 0.00 0.00 0.00 10 1006.1
20260508205822 53 293 6.1 12.2 0.00 0.00 0.00 10 1005.9
20260508205311 53 293 4.3 15.6 0.00 0.00 0.00 10 1006.1
20260508204800 53 293 5.2 15.6 0.00 0.00 0.00 10 1005.9
20260508204253 54 293 7.8 14.8 0.00 0.00 0.00 10 1005.9
20260508203744 55 315 7.8 15.6 0.00 0.00 0.00 10 1005.8
20260508202721 55 293 7.0 14.8 0.00 0.00 0.00 10 1005.7
20260508202210 55 293 7.0 15.6 0.00 0.00 0.00 10 1005.6
20260508201659 55 293 7.0 17.4 0.00 0.00 0.00 10 1005.5
20260508200642 56 293 10.4 21.7 0.00 0.00 0.00 10 1005.5
20260508200129 56 293 13.0 21.7 0.00 0.00 0.00 10 1005.6
20260508195618 56 270 9.6 20.9 0.00 0.00 0.00 10 1005.6
20260508195110 56 315 9.6 20.9 0.00 0.00 0.00 10 1005.7
20260508194048 56 293 9.6 26.1 0.00 0.00 0.00 10 1005.5
20260508193028 57 293 8.7 20.9 0.00 0.00 0.00 10 1005.2
20260508192518 57 270 11.3 23.5 0.00 0.00 0.00 10 1005.3
20260508192008 57 293 13.9 23.5 0.00 0.00 0.00 10 1005.4
20260508191459 57 270 14.8 26.1 0.00 0.00 0.00 10 1005.0
20260508190949 57 270 13.0 26.1 0.00 0.00 0.00 10 1005.3
20260508190438 57 293 13.9 25.2 0.00 0.00 0.00 10 1005.5
20260508185927 56 293 19.1 25.2 0.00 0.00 0.00 10 1005.4
20260508185418 57 270 18.2 23.5 0.00 0.00 0.00 10 1005.5
20260508184908 57 293 11.3 25.2 0.00 0.00 0.00 10 1005.3
20260508184356 56 293 20.9 26.1 0.00 0.00 0.00 10 1005.1
20260508183847 57 293 20.0 26.1 0.00 0.00 0.00 10 1005.5
20260508182827 57 270 18.2 26.9 0.00 0.00 0.00 10 1005.3
20260508182316 57 293 17.4 26.9 0.00 0.00 0.00 10 1005.3
20260508181807 57 293 15.6 26.1 0.00 0.00 0.00 10 1005.3
20260508181256 57 293 18.2 23.5 0.00 0.00 0.00 10 1005.5
20260508180750 57 270 14.8 25.2 0.00 0.00 0.00 10 1005.3
20260508175730 57 293 18.2 25.2 0.00 0.00 0.00 10 1005.6
20260508175220 57 270 20.0 25.2 0.00 0.00 0.00 10 1005.4
20260508174710 58 270 18.2 25.2 0.00 0.00 0.00 10 1005.4
20260508174201 56 293 18.2 25.2 0.00 0.00 0.00 10 1005.4
20260508173649 57 293 18.2 25.2 0.00 0.00 0.00 10 1005.3
20260508173140 57 270 13.0 23.5 0.00 0.00 0.00 10 1005.4
20260508172631 56 293 20.0 25.2 0.00 0.00 0.00 10 1005.4
20260508172121 56 293 17.4 25.2 0.00 0.00 0.00 10 1005.3
20260508171101 56 270 15.6 26.1 0.00 0.00 0.00 10 1005.5
20260508170549 56 293 18.2 25.2 0.00 0.00 0.00 10 1005.7
20260508170044 56 293 15.6 25.2 0.00 0.00 0.00 10 1005.7
20260508165527 55 293 16.5 0.0 0.00 0.00 0.00 10 1005.6